Location: Arboucave
(43.6130°N, 0.4343°W)
Time: 07:56:53
(UTC+00:00)

Cosmos 1140 Rocket - Pass Details

Date: 17 November 2025
Orbit: 740 x 761 km, 74.1° (Epoch: 13 December)

Event Time Altitude Azimuth Distance (km) Brightness Sun altitude
Rises 17:32:25 0° 214° (SW) 3,198 7.6 -10.6°
Reaches altitude 10° 17:34:51 10° 220° (SW) 2,274 6.9 -11.0°
Maximum altitude 17:39:50 49° 295° (WNW) 961 4.4 -11.9°
Drops below altitude 10° 17:44:51 10° 11° (N) 2,275 5.7 -12.7°
Sets 17:47:17 0° 16° (NNE) 3,200 6.4 -13.2°
